Home   Weather   Gänserndorf   Past weeks

Flag for Austria Past Weather in Gänserndorf, Lower Austria, Austria — Yesterday and Last 2 Weeks

Now
67 °F

Partly sunny.


Feels Like: 67 °F
Forecast: 63 / 87 °F
Wind: 7 mph from Northwest

Location: Wien / Schwechat-Flughafen

Current Time: Jul 21, 2017 at 8:27:42 am

Latest Report: Jul 21, 2017 at 7:00 am


Visibility: 25 mi

Pressure: 29.96 "Hg

Humidity: 80%

Dew Point: 61 °F

Location of GänserndorfLocation

Past Weather in Gänserndorf — Graph

°F

Gänserndorf Temperature Yesterday

Maximum temperature yesterday: 91 °F (at 5:00 pm)
Minimum temperature yesterday: 58 °F (at 3:00 am)
Average temperature yesterday: 75 °F

High & Low Weather Summary for the Past Weeks

 TemperatureHumidityPressure
High91 °F (Jul 20, 5:00 pm)94% (Jul 21, 2:00 am)30.24 "Hg (Jul 21, 2:00 am)
Low50 °F (Jul 14, 4:00 am)29% (Jul 18, 5:00 pm)29.74 "Hg (Jul 10, 4:00 pm)
Average72 °F60%29.99 "Hg
* Reported Jul 6 7:00 am — Jul 21 7:00 am, Gänserndorf. Weather by CustomWeather, © 2017

Note: Actual official high and low records may vary slightly from our data, if they occured in-between our weather recording intervals... More about our weather records

Advertising

Gänserndorf Weather History for the Previous 24 Hours

Scroll right to see more
 ConditionsComfort  
Time TempWeatherWind HumidityBarometerVisibility
7:00 am
Fri, Jul 21
67 °FPartly sunny.7 mph80%29.96 "Hg25 mi
6:00 am66 °FOvercast.5 mph85%29.95 "Hg28 mi
5:00 am65 °FOvercast.6 mph90%29.94 "Hg28 mi
4:00 am66 °FOvercast.7 mph91%29.93 "Hg31 mi
3:00 am65 °FLight rain. Overcast.7 mph94%29.93 "Hg25 mi
2:00 am66 °FSprinkles. Low clouds.7 mph94%29.94 "Hg9 mi
1:00 am67 °FOvercast.6 mph87%29.97 "Hg3 mi
12:00 am69 °FOvercast.10 mph75%29.91 "Hg28 mi
11:00 pm
Thu, Jul 20
73 °FOvercast.13 mph63%29.87 "Hg28 mi
10:00 pm75 °FOvercast.14 mph61%29.85 "Hg19 mi
9:00 pm82 °FOvercast.N/A47%29.78 "Hg25 mi
8:00 pm85 °FOvercast.3 mph42%29.77 "Hg22 mi
7:00 pm88 °FOvercast.6 mph35%29.77 "Hg25 mi
6:00 pm90 °FPartly sunny.6 mph34%29.76 "Hg13 mi
5:00 pm91 °FScattered clouds.N/A33%29.78 "Hg17 mi
4:00 pm90 °FScattered clouds.N/A35%29.78 "Hg15 mi
3:00 pm90 °FPartly sunny.3 mph36%29.80 "Hg10 mi
2:00 pm88 °FScattered clouds.3 mph39%29.82 "Hg7 mi
1:00 pm85 °FScattered clouds.N/A42%29.84 "Hg14 mi
12:00 pm82 °FScattered clouds.N/A48%29.85 "Hg18 mi
11:00 am79 °FScattered clouds.N/A52%29.88 "Hg9 mi
10:00 am77 °FScattered clouds.N/A53%29.88 "Hg16 mi
9:00 am73 °FScattered clouds.N/A67%29.89 "Hg14 mi
8:00 am67 °FScattered clouds.N/A79%29.91 "Hg13 mi
Weather by CustomWeather, © 2017

See weather overviewHow to use our weather pages